Location: Goettingen
(51.5300°N, 9.9433°E)
Time: 06:28:33
(UTC+01:00)

ISS - Pass Details

Date: 04 December 2019
Orbit: 411 x 421 km, 51.6° (Epoch: 15 December)

Event Time Altitude Azimuth Distance (km) Brightness Sun altitude
Rises 16:46:59 0° 265° (W) 2,353 1.4 -5.3°
Reaches altitude 10° 16:49:04 10° 266° (W) 1,492 0.3 -5.5°
Maximum altitude 16:52:26 87° 351° (N) 423 -3.7 -6.0°
Drops below altitude 10° 16:55:48 10° 86° (E) 1,500 -1.5 -6.5°
Enters shadow 16:56:27 - 86° (E) 1,763 -1.2 -6.5°
